| time (UTC) | temp F | wind direction | speed MPH | gust MPH | rain 1hr in | rain 24hr in | rain mn in | humidity % | barometer mb |
| 20260509232951 | 58 | 177 | 1.0 | 3.0 | 0.00 | 0.00 | 0.00 | 84 | 1009.6 |
| 20260509231452 | 58 | 169 | 1.0 | 3.0 | 0.00 | 0.00 | 0.00 | 82 | 1009.6 |
| 20260509224451 | 59 | 182 | 2.0 | 5.0 | 0.00 | 0.00 | 0.00 | 80 | 1009.4 |
| 20260509222951 | 60 | 184 | 1.0 | 5.0 | 0.00 | 0.00 | 0.00 | 81 | 1009.7 |
| 20260509221451 | 59 | 153 | 1.0 | 4.0 | 0.00 | 0.00 | 0.00 | 81 | 1009.7 |
| 20260509214449 | 59 | 158 | 1.0 | 3.0 | 0.00 | 0.00 | 0.00 | 82 | 1009.5 |
| 20260509212951 | 58 | 117 | 2.0 | 4.0 | 0.00 | 0.00 | 0.00 | 82 | 1009.7 |
| 20260509211452 | 58 | 115 | 2.0 | 5.0 | 0.00 | 0.00 | 0.00 | 82 | 1009.5 |
| 20260509205955 | 58 | 83 | 4.0 | 7.0 | 0.00 | 0.00 | 0.00 | 82 | 1009.7 |
| 20260509204451 | 59 | 82 | 2.0 | 6.0 | 0.00 | 0.00 | 0.00 | 80 | 1009.7 |
| 20260509202951 | 59 | 121 | 1.0 | 3.0 | 0.00 | 0.00 | 0.00 | 80 | 1009.6 |
| 20260509201451 | 60 | 82 | 1.0 | 3.0 | 0.00 | 0.00 | 0.00 | 77 | 1009.8 |
| 20260509195953 | 60 | 84 | 2.0 | 5.0 | 0.00 | 0.00 | 0.00 | 76 | 1009.7 |
| 20260509194451 | 59 | 127 | 3.0 | 7.0 | 0.00 | 0.00 | 0.00 | 79 | 1009.7 |
| 20260509192951 | 58 | 69 | 4.0 | 9.0 | 0.00 | 0.00 | 0.00 | 81 | 1009.9 |
| 20260509191451 | 57 | 86 | 5.0 | 10.0 | 0.00 | 0.00 | 0.00 | 82 | 1010.2 |
| 20260509185955 | 57 | 72 | 4.0 | 6.0 | 0.00 | 0.00 | 0.00 | 83 | 1010.4 |
| 20260509184451 | 56 | 75 | 5.0 | 9.0 | 0.00 | 0.00 | 0.00 | 82 | 1010.8 |
| 20260509182951 | 57 | 43 | 4.0 | 9.0 | 0.00 | 0.00 | 0.00 | 78 | 1011.0 |
| 20260509181451 | 58 | 56 | 5.0 | 11.0 | 0.00 | 0.00 | 0.00 | 77 | 1010.9 |
| 20260509175954 | 58 | 73 | 5.0 | 10.0 | 0.00 | 0.00 | 0.00 | 78 | 1011.1 |
| 20260509174451 | 58 | 72 | 3.0 | 7.0 | 0.00 | 0.00 | 0.00 | 80 | 1011.1 |
| 20260509172951 | 58 | 51 | 2.0 | 8.0 | 0.00 | 0.00 | 0.00 | 81 | 1011.1 |
| 20260509171451 | 59 | 73 | 1.0 | 7.0 | 0.00 | 0.00 | 0.00 | 79 | 1011.5 |
| 20260509165954 | 60 | 53 | 1.0 | 4.0 | 0.00 | 0.00 | 0.00 | 74 | 1011.2 |
| 20260509164452 | 60 | 299 | 0.0 | 0.0 | 0.00 | 0.00 | 0.00 | 74 | 1011.1 |
| 20260509162951 | 60 | 299 | 0.0 | 2.0 | 0.00 | 0.00 | 0.00 | 73 | 1011.1 |
| 20260509161450 | 60 | 262 | 1.0 | 2.0 | 0.00 | 0.00 | 0.00 | 71 | 1011.0 |
| 20260509155956 | 60 | 328 | 0.0 | 3.0 | 0.00 | 0.00 | 0.00 | 73 | 1011.2 |
| 20260509154451 | 60 | 352 | 1.0 | 2.0 | 0.00 | 0.00 | 0.00 | 76 | 1011.7 |
| 20260509152951 | 60 | 283 | 1.0 | 3.0 | 0.00 | 0.00 | 0.00 | 76 | 1012.1 |
| 20260509151451 | 60 | 338 | 1.0 | 3.0 | 0.00 | 0.00 | 0.00 | 77 | 1012.0 |
| 20260509145953 | 59 | 288 | 4.0 | 7.0 | 0.00 | 0.00 | 0.00 | 77 | 1012.2 |
| 20260509144451 | 59 | 309 | 5.0 | 11.0 | 0.00 | 0.00 | 0.00 | 77 | 1012.0 |
| 20260509142951 | 60 | 297 | 5.0 | 10.0 | 0.00 | 0.00 | 0.00 | 77 | 1011.9 |
| 20260509141451 | 60 | 318 | 6.0 | 13.0 | 0.00 | 0.00 | 0.00 | 76 | 1011.8 |
| 20260509135954 | 60 | 319 | 7.0 | 16.0 | 0.00 | 0.00 | 0.00 | 76 | 1011.6 |
| 20260509134451 | 59 | 278 | 6.0 | 14.0 | 0.00 | 0.00 | 0.00 | 78 | 1011.5 |
| 20260509132950 | 59 | 301 | 5.0 | 10.0 | 0.00 | 0.00 | 0.00 | 79 | 1011.5 |
| 20260509131451 | 58 | 276 | 4.0 | 9.0 | 0.00 | 0.00 | 0.00 | 80 | 1011.4 |
| 20260509125954 | 58 | 324 | 4.0 | 11.0 | 0.00 | 0.00 | 0.00 | 81 | 1011.4 |
| 20260509124452 | 57 | 269 | 4.0 | 8.0 | 0.00 | 0.00 | 0.00 | 81 | 1011.3 |
| 20260509122950 | 57 | 262 | 4.0 | 9.0 | 0.00 | 0.00 | 0.00 | 82 | 1011.4 |
| 20260509121450 | 56 | 288 | 3.0 | 7.0 | 0.00 | 0.00 | 0.00 | 82 | 1011.5 |
| 20260509114451 | 55 | 288 | 2.0 | 5.0 | 0.00 | 0.00 | 0.00 | 83 | 1011.3 |
| 20260509112951 | 54 | 265 | 2.0 | 5.0 | 0.00 | 0.00 | 0.00 | 83 | 1011.2 |
| 20260509111452 | 54 | 263 | 1.0 | 4.0 | 0.00 | 0.00 | 0.00 | 83 | 1011.2 |
| 20260509104451 | 54 | 263 | 1.0 | 4.0 | 0.00 | 0.00 | 0.00 | 83 | 1011.0 |
| 20260509101450 | 54 | 293 | 0.0 | 2.0 | 0.00 | 0.00 | 0.00 | 84 | 1011.1 |
| 20260509095954 | 54 | 281 | 0.0 | 2.0 | 0.00 | 0.00 | 0.00 | 84 | 1010.9 |
| 20260509092950 | 54 | 288 | 1.0 | 4.0 | 0.00 | 0.00 | 0.00 | 83 | 1010.8 |
| 20260509082950 | 54 | 311 | 2.0 | 5.0 | 0.00 | 0.00 | 0.00 | 82 | 1011.1 |
| 20260509081451 | 54 | 313 | 3.0 | 5.0 | 0.00 | 0.00 | 0.00 | 81 | 1011.2 |
| 20260509075954 | 54 | 304 | 3.0 | 7.0 | 0.00 | 0.00 | 0.00 | 81 | 1011.2 |
| 20260509074451 | 53 | 318 | 3.0 | 7.0 | 0.00 | 0.00 | 0.00 | 82 | 1011.2 |
| 20260509072951 | 53 | 297 | 4.0 | 10.0 | 0.00 | 0.00 | 0.00 | 82 | 1011.2 |
| 20260509071451 | 52 | 228 | 4.0 | 8.0 | 0.00 | 0.00 | 0.00 | 81 | 1011.2 |
| 20260509065955 | 52 | 273 | 3.0 | 8.0 | 0.00 | 0.00 | 0.00 | 81 | 1011.3 |
| 20260509064451 | 52 | 268 | 1.0 | 4.0 | 0.00 | 0.00 | 0.00 | 79 | 1011.5 |
| 20260509061450 | 53 | 249 | 1.0 | 3.0 | 0.00 | 0.00 | 0.00 | 76 | 1011.8 |
| 20260509055954 | 53 | 271 | 1.0 | 4.0 | 0.00 | 0.00 | 0.00 | 75 | 1012.0 |
| 20260509054450 | 53 | 218 | 1.0 | 3.0 | 0.00 | 0.00 | 0.00 | 73 | 1012.0 |
| 20260509052951 | 54 | 254 | 1.0 | 4.0 | 0.00 | 0.00 | 0.00 | 72 | 1012.2 |
| 20260509051452 | 55 | 257 | 0.0 | 3.0 | 0.00 | 0.00 | 0.00 | 70 | 1012.3 |
| 20260509045955 | 56 | 268 | 1.0 | 3.0 | 0.00 | 0.00 | 0.00 | 69 | 1012.4 |
| 20260509042951 | 57 | 278 | 4.0 | 8.0 | 0.00 | 0.00 | 0.00 | 68 | 1012.5 |
| 20260509041452 | 56 | 271 | 2.0 | 5.0 | 0.00 | 0.00 | 0.00 | 70 | 1012.5 |
| 20260509034452 | 57 | 240 | 0.0 | 2.0 | 0.00 | 0.00 | 0.00 | 69 | 1012.4 |
| 20260509032952 | 58 | 279 | 0.0 | 1.0 | 0.00 | 0.00 | 0.00 | 68 | 1012.4 |
| 20260509031451 | 59 | 338 | 0.0 | 1.0 | 0.00 | 0.00 | 0.00 | 66 | 1012.7 |
| 20260509025954 | 59 | 280 | 1.0 | 2.0 | 0.00 | 0.00 | 0.00 | 66 | 1012.8 |
| 20260509024451 | 59 | 311 | 3.0 | 8.0 | 0.00 | 0.00 | 0.00 | 65 | 1012.7 |
| 20260509021451 | 59 | 306 | 2.0 | 6.0 | 0.00 | 0.00 | 0.00 | 65 | 1012.5 |
| 20260509015955 | 60 | 309 | 2.0 | 5.0 | 0.00 | 0.00 | 0.00 | 64 | 1012.5 |
| 20260509014451 | 60 | 296 | 3.0 | 6.0 | 0.00 | 0.00 | 0.00 | 64 | 1012.6 |
| 20260509012951 | 60 | 313 | 3.0 | 6.0 | 0.00 | 0.00 | 0.00 | 63 | 1012.5 |
| 20260509011451 | 60 | 312 | 2.0 | 7.0 | 0.00 | 0.00 | 0.00 | 63 | 1012.3 |
| 20260509005954 | 60 | 295 | 2.0 | 4.0 | 0.00 | 0.00 | 0.00 | 62 | 1012.1 |
| 20260509004451 | 61 | 307 | 3.0 | 8.0 | 0.00 | 0.00 | 0.00 | 62 | 1011.8 |
| 20260509002951 | 61 | 312 | 3.0 | 7.0 | 0.00 | 0.00 | 0.00 | 61 | 1011.7 |
| 20260509001450 | 61 | 304 | 3.0 | 7.0 | 0.00 | 0.00 | 0.00 | 59 | 1011.3 |
| 20260508235955 | 62 | 290 | 3.0 | 6.0 | 0.00 | 0.00 | 0.00 | 57 | 1011.3 |
| 20260508234451 | 62 | 320 | 2.0 | 5.0 | 0.00 | 0.00 | 0.00 | 54 | 1011.3 |